Wind_Speed
18 18 18 19 19 19 20 20 20 21 21 22 22 22 22 22 21 21 22 22 23 23 24 24 24 24 24 24 24 24 24 24 24 25 25 25 25 26
19 19 19 20 20 20 21 21 22 23 22 23 23 23 24 24 24 23 23 24 24 25 24 24 25 25 25 25 25 25 25 25 26 26 26 26 26 27
20 20 20 21 21 21 22 22 23 23 24 23 24 24 24 25 25 25 25 25 26 25 25 25 26 26 26 26 26 26 26 26 27 27 28 27 27 28
21 21 21 21 21 22 22 23 23 24 24 23 24 24 23 24 24 25 26 26 26 26 26 26 26 26 27 27 27 27 27 27 27 27 27 26 27 27
22 22 22 22 22 22 23 23 23 24 24 24 24 24 24 24 24 25 25 26 26 25 25 26 26 26 26 27 27 27 26 26 27 27 27 27 27 27
22 22 22 22 22 23 23 23 23 23 23 23 23 23 23 24 24 25 25 25 25 25 26 26 26 25 24 25 25 26 26 25 25 26 26 27 27 27
22 22 21 21 22 22 22 23 23 23 23 23 23 23 23 24 24 24 25 25 25 25 26 26 26 25 24 24 23 24 24 25 25 25 25 25 25 25
22 21 21 21 21 21 22 22 22 22 22 22 22 23 23 23 23 23 24 24 24 24 24 25 25 24 24 24 23 23 23 24 24 25 25 25 25 25
20 20 21 21 21 21 21 20 21 22 22 22 22 22 22 22 22 22 23 23 23 23 23 24 24 23 23 22 22 22 23 23 24 24 24 24 24 25
20 20 21 22 21 21 21 21 21 22 22 22 22 22 22 21 21 21 21 21 22 22 22 23 22 22 22 22 23 23 23 23 24 24 24 23 24 24
21 21 22 21 21 21 21 21 21 22 22 22 22 21 21 20 21 20 20 21 20 20 20 21 21 22 21 22 22 22 22 22 23 23 23 23 24 24
20 20 21 21 21 20 20 20 21 21 22 22 21 20 20 19 20 20 19 19 19 19 19 20 20 21 21 21 21 21 21 22 22 22 23 23 24 24
20 20 20 20 20 20 20 20 20 21 21 20 20 20 19 18 18 18 18 18 18 18 18 19 19 19 19 19 20 20 21 22 21 21 22 23 24 24
20 19 19 19 19 20 20 20 20 20 20 20 19 19 18 18 17 18 17 17 17 17 17 18 18 18 18 18 19 19 20 20 21 22 22 23 24 24
19 19 19 19 18 19 20 20 20 20 19 19 18 18 18 18 17 17 17 17 17 17 17 17 18 18 19 19 19 18 19 19 20 21 21 22 23 24
19 19 19 19 19 20 20 20 20 19 18 18 18 18 18 18 18 18 18 18 18 18 18 18 18 18 18 19 19 19 19 20 20 20 21 22 23 22
19 19 19 19 19 20 20 19 19 18 18 18 18 18 18 18 18 18 18 18 19 19 19 19 19 19 19 19 20 20 20 20 21 21 22 22 22 22
19 19 19 19 19 19 19 19 19 19 18 18 18 18 18 18 18 19 19 19 19 19 19 19 19 19 19 19 20 20 21 21 22 22 22 23 22 22
19 19 19 19 19 19 18 18 19 19 19 19 18 18 18 19 19 19 19 20 19 19 19 20 20 20 20 20 20 21 21 22 22 22 23 23 22 22
19 19 20 20 19 19 19 19 19 19 19 19 19 19 19 19 20 20 20 20 20 20 20 20 20 20 20 20 20 20 21 22 22 22 22 22 22 22
20 20 20 20 20 20 20 20 20 20 20 20 19 20 20 20 20 21 21 21 21 21 21 20 20 20 19 19 19 20 20 21 22 22 23 23 23 23
22 22 21 21 21 21 21 21 21 21 21 21 21 21 21 21 21 21 21 21 21 21 21 21 21 21 20 20 20 21 21 22 22 23 23 23 23 23
23 23 23 23 22 22 22 22 22 22 22 22 22 22 21 22 22 22 22 21 21 21 21 21 22 22 22 22 22 23 23 22 23 23 23 24 24 25
Wind_Direction
283 284 284 285 285 285 285 284 283 284 284 281 280 279 280 280 282 283 280 277 273 273 273 272 271 272 273 273 271 271 271 270 269 268 268 269 271 269
282 283 284 285 285 286 286 286 285 285 286 284 282 280 279 279 280 279 279 276 272 270 271 271 270 272 273 271 270 270 269 268 269 268 269 269 270 270
285 285 286 285 284 285 286 285 286 285 285 284 282 280 279 279 280 279 278 274 272 271 271 272 270 271 271 270 270 269 267 267 268 268 269 269 270 270
285 286 285 285 285 286 286 287 288 288 288 286 284 281 279 279 280 281 280 277 274 274 272 273 274 272 271 271 270 269 269 268 268 269 268 269 270 270
285 285 285 285 285 286 286 287 288 289 289 287 285 283 281 281 282 281 280 278 275 274 272 273 275 273 272 271 270 270 270 270 270 269 269 268 269 272
287 287 286 285 286 286 287 288 289 290 289 287 285 284 283 283 282 282 280 279 278 276 274 273 274 273 270 270 270 269 269 269 270 270 270 270 271 271
287 287 285 286 288 288 288 289 290 290 289 287 286 285 284 283 282 282 281 279 278 277 275 275 275 274 272 270 271 270 270 271 270 270 272 273 272 271
286 288 287 287 287 287 289 291 290 290 289 288 286 285 285 284 284 282 282 281 280 280 279 276 275 274 273 272 272 271 271 270 270 272 273 274 273 273
284 286 289 289 288 287 288 290 290 290 290 289 288 287 285 285 284 283 283 283 283 283 281 279 276 275 274 273 275 276 276 275 273 272 272 273 274 274
280 283 288 289 290 290 290 290 290 290 290 290 289 288 286 285 284 282 280 282 284 283 282 280 277 275 274 274 275 276 277 277 276 273 272 276 277 276
282 283 287 290 290 289 290 291 291 292 291 290 290 289 286 284 284 283 282 283 283 283 283 282 279 278 276 276 276 276 275 276 276 275 275 277 280 279
282 280 284 287 287 287 290 291 292 292 292 292 292 290 287 285 284 284 284 283 283 283 284 283 282 279 277 276 276 275 276 276 276 275 277 278 280 280
283 280 281 285 284 285 290 290 290 292 292 291 290 289 287 284 285 286 287 285 285 286 286 284 285 283 280 279 279 277 277 277 276 277 278 279 280 280
282 281 279 283 283 286 288 290 290 291 290 290 291 290 287 285 283 284 286 283 283 285 286 285 285 284 282 282 281 280 280 280 279 280 280 280 281 281
279 280 281 283 287 286 287 289 290 290 288 287 289 289 287 286 284 284 286 288 287 287 288 288 286 284 282 280 280 281 282 283 282 283 282 281 283 282
279 281 281 282 286 288 289 288 287 287 285 286 287 289 288 286 284 284 284 286 287 288 289 290 290 287 283 282 280 280 281 282 282 284 285 286 286 284
280 282 282 283 284 287 288 288 287 286 287 287 287 288 288 288 286 285 286 285 286 286 287 288 288 286 285 284 281 281 280 281 283 286 287 287 285 285
280 282 282 282 283 286 288 289 288 287 286 286 286 287 288 290 288 286 286 286 288 288 288 288 288 287 287 285 283 282 282 282 283 284 285 287 285 285
279 282 283 283 286 286 287 288 289 290 286 285 286 286 288 292 291 289 287 287 289 289 289 288 287 287 288 287 286 285 285 286 286 286 286 286 286 286
279 281 281 282 285 285 285 286 287 288 287 286 288 289 291 292 292 291 290 290 291 291 290 289 289 289 288 287 286 287 287 288 288 288 288 286 286 287
280 283 283 281 283 282 282 283 285 286 286 285 287 289 291 290 291 291 291 292 291 289 289 287 287 289 290 291 290 290 289 289 290 290 289 288 288 289
280 282 283 282 282 281 280 280 282 284 285 285 287 287 288 290 292 292 291 291 289 287 288 286 286 288 289 290 289 290 291 290 290 291 291 290 291 292
278 280 280 280 280 279 278 278 279 281 283 285 285 287 289 290 291 292 292 289 286 286 286 285 286 287 288 288 288 289 289 289 289 291 291 290 290 292
Height
5817 5816 5816 5815 5815 5814 5814 5813 5813 5813 5812 5812 5811 5811 5811 5810 5810 5810 5810 5810 5810 5810 5810 5810 5810 5811 5811 5811 5811 5811 5811 5811 5812 5812 5813 5813 5813 5814
5812 5812 5811 5810 5810 5809 5809 5808 5807 5806 5806 5805 5804 5804 5804 5804 5804 5803 5803 5803 5803 5803 5803 5803 5804 5804 5804 5804 5804 5804 5804 5805 5805 5805 5805 5806 5806 5807
5807 5807 5806 5805 5805 5804 5803 5802 5801 5800 5799 5799 5798 5797 5797 5796 5796 5796 5796 5796 5796 5796 5796 5796 5796 5796 5796 5796 5796 5796 5797 5797 5797 5797 5798 5798 5798 5799
5802 5801 5801 5800 5799 5798 5797 5796 5794 5793 5792 5792 5791 5790 5790 5789 5789 5789 5789 5788 5788 5788 5789 5789 5789 5789 5788 5788 5788 5788 5789 5789 5789 5789 5790 5790 5790 5790
5796 5795 5795 5794 5793 5792 5790 5789 5788 5787 5785 5784 5783 5783 5782 5782 5782 5782 5781 5781 5781 5781 5781 5781 5781 5781 5780 5780 5780 5780 5780 5781 5781 5781 5781 5782 5782 5782
5790 5789 5788 5787 5786 5785 5784 5783 5782 5780 5779 5778 5777 5776 5776 5775 5775 5775 5774 5774 5774 5773 5773 5773 5773 5773 5773 5772 5772 5772 5772 5772 5773 5773 5773 5774 5774 5774
5784 5783 5782 5781 5780 5779 5778 5777 5775 5774 5773 5772 5771 5770 5770 5769 5768 5767 5767 5766 5766 5766 5765 5765 5765 5766 5766 5765 5765 5765 5765 5765 5765 5765 5765 5766 5766 5766
5778 5777 5776 5775 5774 5773 5772 5770 5769 5768 5767 5766 5765 5764 5763 5762 5761 5761 5760 5760 5760 5759 5758 5758 5757 5758 5758 5758 5758 5757 5757 5757 5757 5757 5758 5758 5758 5758
5772 5771 5770 5769 5768 5767 5766 5764 5763 5761 5761 5760 5759 5758 5757 5756 5755 5754 5753 5753 5753 5752 5751 5751 5750 5750 5750 5750 5750 5750 5750 5750 5750 5749 5750 5750 5750 5750
5766 5765 5764 5763 5762 5761 5759 5758 5757 5756 5755 5754 5753 5752 5750 5749 5748 5748 5747 5746 5746 5745 5744 5744 5744 5743 5743 5743 5743 5743 5743 5742 5742 5742 5742 5742 5742 5741
5759 5759 5758 5757 5756 5755 5754 5752 5751 5750 5749 5747 5746 5745 5744 5743 5742 5742 5741 5740 5740 5740 5738 5737 5737 5737 5737 5737 5736 5736 5736 5736 5735 5735 5735 5735 5734 5734
5753 5753 5752 5751 5750 5749 5748 5747 5746 5745 5743 5742 5740 5739 5738 5738 5737 5736 5735 5734 5734 5733 5732 5731 5731 5730 5730 5730 5730 5730 5729 5729 5729 5728 5728 5728 5727 5726
5747 5746 5746 5745 5744 5743 5742 5741 5740 5739 5737 5736 5735 5734 5733 5732 5731 5730 5730 5729 5728 5727 5727 5726 5725 5724 5724 5724 5723 5723 5723 5722 5722 5722 5721 5720 5720 5719
5741 5740 5740 5739 5738 5738 5737 5735 5734 5733 5732 5731 5730 5729 5728 5727 5726 5726 5724 5723 5722 5722 5721 5720 5719 5719 5718 5718 5717 5717 5716 5715 5715 5715 5714 5713 5712 5711
5735 5735 5734 5733 5732 5732 5731 5730 5728 5727 5726 5726 5725 5724 5723 5722 5721 5721 5720 5719 5718 5717 5716 5715 5714 5713 5712 5712 5711 5711 5710 5709 5709 5708 5707 5706 5705 5704
5729 5729 5728 5727 5727 5726 5725 5724 5723 5722 5721 5720 5720 5719 5718 5717 5716 5715 5715 5714 5713 5712 5710 5709 5708 5707 5706 5705 5705 5705 5704 5703 5703 5701 5700 5699 5698 5697
5723 5723 5723 5722 5722 5721 5720 5719 5718 5717 5716 5715 5714 5714 5713 5712 5711 5710 5709 5708 5707 5706 5705 5704 5702 5701 5700 5699 5698 5698 5697 5697 5696 5695 5694 5693 5692 5690
5717 5717 5717 5716 5716 5715 5714 5713 5712 5711 5710 5710 5709 5708 5707 5706 5705 5704 5703 5702 5701 5700 5699 5698 5697 5696 5695 5693 5692 5692 5691 5690 5689 5688 5687 5686 5685 5683
5711 5711 5711 5711 5710 5709 5708 5707 5707 5706 5705 5704 5703 5702 5702 5701 5700 5699 5698 5696 5695 5694 5693 5692 5691 5690 5689 5688 5686 5685 5684 5683 5682 5681 5680 5679 5677 5676
5705 5705 5704 5704 5703 5703 5702 5701 5701 5700 5700 5699 5698 5697 5696 5695 5694 5693 5691 5690 5689 5688 5687 5686 5685 5683 5682 5681 5680 5679 5678 5676 5675 5674 5673 5671 5670 5669
5699 5698 5698 5697 5697 5696 5696 5695 5695 5694 5694 5693 5692 5691 5690 5689 5687 5686 5685 5683 5682 5681 5680 5679 5678 5677 5676 5675 5674 5673 5671 5670 5668 5667 5666 5664 5663 5661
5692 5692 5691 5690 5690 5689 5689 5689 5688 5688 5687 5687 5686 5685 5684 5682 5681 5679 5678 5676 5675 5675 5673 5672 5672 5671 5670 5669 5667 5666 5665 5663 5662 5660 5658 5657 5655 5654
5685 5684 5684 5683 5683 5682 5682 5682 5681 5681 5680 5680 5679 5678 5677 5676 5674 5672 5671 5670 5669 5668 5667 5666 5665 5664 5663 5662 5661 5660 5658 5656 5655 5653 5652 5650 5648 5646